Location: *
(2.5500°S, 65.9667°W)
Time: 22:51:59
(UTC+00:00)

X-37B - Pass Details

Date: 26 January 2022
Orbit: 329 x 342 km, 45.0° (Epoch: 18 May)

Event Time Altitude Azimuth Distance (km) Brightness Sun altitude
Exits shadow 08:49:13 10° 166° (SSE) 1,226 3.5 -24.4°
Drops below altitude 10° 08:49:17 10° 166° (SSE) 1,252 3.6 -24.3°
Sets 08:51:27 0° 153° (SSE) 2,091 5.0 -23.8°
